TimeEDT,TemperatureF,Dew PointF,Humidity,Sea Level PressureIn,VisibilityMPH,Wind Direction,Wind SpeedMPH,Gust SpeedMPH,PrecipitationIn,Events,Conditions,WindDirDegrees,DateUTC
12:15 AM,68.0,62.6,83,30.09,10.0,Calm,Calm,-,N/A,,Clear,0,2013-08-21 04:15:00
12:35 AM,68.0,62.6,83,30.09,10.0,SSW,4.6,-,N/A,,Clear,200,2013-08-21 04:35:00
12:54 AM,68.0,62.6,83,30.09,10.0,Calm,Calm,-,N/A,,Clear,0,2013-08-21 04:54:00
1:15 AM,68.0,62.6,83,30.09,10.0,SSW,3.5,-,N/A,,Clear,200,2013-08-21 05:15:00
1:35 AM,66.2,60.8,83,30.09,10.0,South,3.5,-,N/A,,Clear,190,2013-08-21 05:35:00
1:54 AM,66.2,62.6,88,30.09,10.0,Calm,Calm,-,N/A,,Clear,0,2013-08-21 05:54:00
2:15 AM,64.4,62.6,94,30.09,7.0,Calm,Calm,-,N/A,,Clear,0,2013-08-21 06:15:00
2:35 AM,64.4,60.8,88,30.09,10.0,South,4.6,-,N/A,,Clear,180,2013-08-21 06:35:00
2:54 AM,64.4,62.6,94,30.09,7.0,South,5.8,-,N/A,,Clear,180,2013-08-21 06:54:00
3:15 AM,64.4,62.6,94,30.09,7.0,South,4.6,-,N/A,,Clear,180,2013-08-21 07:15:00
3:35 AM,64.4,62.6,94,30.09,7.0,South,5.8,-,N/A,,Clear,190,2013-08-21 07:35:00
3:54 AM,64.4,62.6,94,30.09,7.0,South,4.6,-,N/A,,Clear,190,2013-08-21 07:54:00
4:15 AM,64.4,60.8,88,30.09,7.0,South,3.5,-,N/A,,Clear,190,2013-08-21 08:15:00
4:35 AM,62.6,60.8,94,30.09,7.0,Calm,Calm,-,N/A,,Clear,0,2013-08-21 08:35:00
4:54 AM,62.6,60.8,94,30.08,7.0,Calm,Calm,-,N/A,,Clear,0,2013-08-21 08:54:00
5:15 AM,62.6,60.8,94,30.08,7.0,South,4.6,-,N/A,,Clear,190,2013-08-21 09:15:00
5:35 AM,62.6,60.8,94,30.08,7.0,South,4.6,-,N/A,,Clear,190,2013-08-21 09:35:00
5:54 AM,62.6,60.8,94,30.09,7.0,South,5.8,-,N/A,,Clear,180,2013-08-21 09:54:00
6:15 AM,62.6,60.8,94,30.09,7.0,South,4.6,-,N/A,,Clear,190,2013-08-21 10:15:00
6:34 AM,62.6,60.8,94,30.09,7.0,South,3.5,-,N/A,,Clear,190,2013-08-21 10:34:00
6:55 AM,62.6,60.8,94,30.09,7.0,SSW,3.5,-,N/A,,Clear,200,2013-08-21 10:55:00
7:15 AM,62.6,60.8,94,30.10,7.0,SSW,3.5,-,N/A,,Scattered Clouds,210,2013-08-21 11:15:00
7:34 AM,64.4,62.6,94,30.10,7.0,SSW,3.5,-,N/A,,Scattered Clouds,210,2013-08-21 11:34:00
7:55 AM,64.4,62.6,94,30.10,7.0,SSW,3.5,-,N/A,,Clear,200,2013-08-21 11:55:00
8:15 AM,68.0,64.4,88,30.10,10.0,SSW,3.5,-,N/A,,Clear,200,2013-08-21 12:15:00
8:34 AM,69.8,62.6,78,30.10,10.0,SSW,8.1,-,N/A,,Clear,210,2013-08-21 12:34:00
8:55 AM,69.8,62.6,78,30.11,10.0,SW,9.2,-,N/A,,Clear,220,2013-08-21 12:55:00
9:15 AM,71.6,62.6,73,30.11,10.0,SW,10.4,-,N/A,,Clear,230,2013-08-21 13:15:00
9:34 AM,71.6,62.6,73,30.11,10.0,SW,8.1,-,N/A,,Clear,220,2013-08-21 13:34:00
9:55 AM,73.4,62.6,69,30.10,10.0,SW,9.2,-,N/A,,Clear,230,2013-08-21 13:55:00
10:15 AM,75.2,64.4,69,30.10,10.0,SW,8.1,-,N/A,,Clear,230,2013-08-21 14:15:00
10:34 AM,77.0,64.4,65,30.10,10.0,SSW,10.4,-,N/A,,Clear,210,2013-08-21 14:34:00
10:55 AM,78.8,64.4,61,30.10,10.0,SW,9.2,-,N/A,,Clear,220,2013-08-21 14:55:00
11:15 AM,78.8,64.4,61,30.09,10.0,SW,9.2,-,N/A,,Clear,230,2013-08-21 15:15:00
11:34 AM,80.6,64.4,58,30.09,10.0,SW,9.2,-,N/A,,Clear,220,2013-08-21 15:34:00
11:55 AM,80.6,64.4,58,30.09,10.0,SSW,9.2,-,N/A,,Clear,210,2013-08-21 15:55:00
12:15 PM,82.4,62.6,51,30.09,10.0,SSW,10.4,16.1,N/A,,Clear,210,2013-08-21 16:15:00
12:34 PM,82.4,62.6,51,30.08,10.0,South,9.2,-,N/A,,Clear,180,2013-08-21 16:34:00
12:55 PM,82.4,62.6,51,30.08,10.0,SW,12.7,19.6,N/A,,Scattered Clouds,220,2013-08-21 16:55:00
1:15 PM,82.4,60.8,48,30.08,10.0,SW,11.5,19.6,N/A,,Clear,220,2013-08-21 17:15:00
1:34 PM,84.2,62.6,48,30.07,10.0,SSW,15.0,18.4,N/A,,Clear,210,2013-08-21 17:34:00
1:55 PM,84.2,60.8,45,30.06,10.0,SW,12.7,19.6,N/A,,Scattered Clouds,230,2013-08-21 17:55:00
2:15 PM,84.2,60.8,45,30.05,10.0,SW,13.8,21.9,N/A,,Scattered Clouds,230,2013-08-21 18:15:00
2:34 PM,86.0,60.8,43,30.05,10.0,WSW,13.8,21.9,N/A,,Clear,240,2013-08-21 18:34:00
2:55 PM,86.0,60.8,43,30.04,10.0,SW,11.5,19.6,N/A,,Scattered Clouds,220,2013-08-21 18:55:00
3:15 PM,86.0,59.0,40,30.03,10.0,SW,13.8,20.7,N/A,,Scattered Clouds,230,2013-08-21 19:15:00
3:34 PM,86.0,59.0,40,30.03,10.0,SW,13.8,-,N/A,,Clear,220,2013-08-21 19:34:00
3:55 PM,86.0,59.0,40,30.03,10.0,SW,11.5,19.6,N/A,,Scattered Clouds,230,2013-08-21 19:55:00
4:15 PM,86.0,59.0,40,30.02,10.0,WSW,12.7,-,N/A,,Scattered Clouds,240,2013-08-21 20:15:00
4:34 PM,86.0,59.0,40,30.01,10.0,SW,10.4,18.4,N/A,,Clear,230,2013-08-21 20:34:00
4:55 PM,86.0,59.0,40,30.01,10.0,SW,11.5,-,N/A,,Clear,220,2013-08-21 20:55:00
5:14 PM,86.0,59.0,40,30.00,10.0,WSW,11.5,18.4,N/A,,Clear,240,2013-08-21 21:14:00
5:34 PM,86.0,59.0,40,30.00,10.0,SW,12.7,18.4,N/A,,Clear,230,2013-08-21 21:34:00
5:55 PM,86.0,59.0,40,29.99,10.0,SW,10.4,16.1,N/A,,Clear,230,2013-08-21 21:55:00
6:15 PM,84.2,57.2,40,29.98,10.0,WSW,11.5,18.4,N/A,,Clear,240,2013-08-21 22:15:00
6:34 PM,84.2,59.0,42,29.98,10.0,SW,10.4,16.1,N/A,,Clear,230,2013-08-21 22:34:00
6:55 PM,82.4,59.0,45,29.98,10.0,SW,9.2,16.1,N/A,,Clear,230,2013-08-21 22:55:00
7:14 PM,82.4,59.0,45,29.97,10.0,SW,8.1,-,N/A,,Clear,220,2013-08-21 23:14:00
7:35 PM,80.6,60.8,51,29.97,10.0,SW,9.2,-,N/A,,Clear,220,2013-08-21 23:35:00
7:55 PM,80.6,60.8,51,29.97,10.0,SW,6.9,-,N/A,,Clear,220,2013-08-21 23:55:00
8:14 PM,78.8,60.8,54,29.98,10.0,SW,5.8,-,N/A,,Clear,220,2013-08-22 00:14:00
8:35 PM,77.0,60.8,57,29.98,10.0,SSW,4.6,-,N/A,,Clear,200,2013-08-22 00:35:00
8:55 PM,75.2,62.6,65,29.99,10.0,SW,5.8,-,N/A,,Clear,220,2013-08-22 00:55:00
9:14 PM,73.4,60.8,65,30.00,10.0,SW,5.8,-,N/A,,Clear,220,2013-08-22 01:14:00
9:35 PM,73.4,62.6,69,30.00,10.0,SSW,6.9,-,N/A,,Clear,210,2013-08-22 01:35:00
9:55 PM,73.4,62.6,69,30.01,10.0,SW,5.8,-,N/A,,Clear,230,2013-08-22 01:55:00
10:14 PM,71.6,62.6,73,30.01,10.0,SW,6.9,-,N/A,,Clear,220,2013-08-22 02:14:00
10:35 PM,73.4,62.6,69,30.01,10.0,SW,6.9,-,N/A,,Clear,220,2013-08-22 02:35:00
10:55 PM,71.6,62.6,73,30.00,10.0,SW,4.6,-,N/A,,Clear,220,2013-08-22 02:55:00
11:14 PM,71.6,62.6,73,30.01,10.0,SW,5.8,-,N/A,,Clear,230,2013-08-22 03:14:00
11:35 PM,71.6,62.6,73,30.00,10.0,SSW,5.8,-,N/A,,Scattered Clouds,200,2013-08-22 03:35:00
11:55 PM,71.6,62.6,73,29.99,10.0,SSW,5.8,-,N/A,,Scattered Clouds,210,2013-08-22 03:55:00